Simultaneous Nadir Overpasses (SNOs) Predictions

Prediction of SNOs between FY3D and NOAA-19 Satellite Orbit:

Table of predicted SNOs for the next 14.0 days since TLE Epoch: 7/13/2019
Index Date (FY3D) Time (FY3D) Lat,Lon (FY3D) SZA (FY3D ) Date (NOAA-19) Time (NOAA-19) Lat,Lon (NOAA-19) SZA (NOAA-19 ) Distance(km) Time Diff (sec)
1 07/22/2019 21:21:28 -80.05, 1.61 117.75 07/22/2019 21:20:18 -80.03, 1.56 117.72 2.09 70
2 07/22/2019 22:12:12 80.04, 169.02 62.25 07/22/2019 22:11:16 80.05, 169.15 62.27 3.09 56
3 07/22/2019 23:02:57 -80.04, -23.71 117.74 07/22/2019 23:02:18 -80.05, -23.70 117.72 0.82 39
4 07/22/2019 23:53:41 80.03, 143.70 62.25 07/22/2019 23:53:17 80.05, 143.59 62.29 2.90 24
5 07/23/2019 00:44:27 -80.07, -49.34 117.68 07/23/2019 00:44:19 -80.04, -49.26 117.70 2.85 8
6 07/23/2019 01:35:11 80.06, 118.07 62.31 07/23/2019 01:35:18 80.05, 118.02 62.31 1.54 7
7 07/23/2019 02:25:56 -80.06, -74.66 117.68 07/23/2019 02:26:19 -80.06, -74.51 117.70 2.85 23
8 07/23/2019 03:16:40 80.05, 92.75 62.32 07/23/2019 03:17:18 80.06, 92.78 62.31 1.45 38
9 07/23/2019 04:07:25 -80.06, -99.99 117.67 07/23/2019 04:08:20 -80.06,-100.08 117.69 1.79 55




NCC Satellite Simultaneous Nadir Overpasses (SNOs) Prediction Service
